Time,TemperatureF,DewpointF,PressureIn,WindDirection,WindDirectionDegrees,WindSpeedMPH,WindSpeedGustMPH,Humidity,HourlyPrecipIn,Conditions,Clouds,dailyrainin,SoftwareType,DateUTC
2013-03-13 00:07:00,55.9,44.0,29.71,North,349,0.0,5.0,65,0.00,,,0.00,weatherlink.com 1.10,2013-03-12 22:07:00,
2013-03-13 00:22:00,55.4,45.0,29.71,WSW,248,0.0,4.0,68,0.00,,,0.00,weatherlink.com 1.10,2013-03-12 22:22:00,
2013-03-13 00:38:00,55.2,45.0,29.71,NNW,335,0.0,3.0,69,0.00,,,0.00,weatherlink.com 1.10,2013-03-12 22:38:00,
2013-03-13 00:53:00,54.9,45.0,29.71,WSW,258,0.0,2.0,69,0.00,,,0.00,weatherlink.com 1.10,2013-03-12 22:53:00,
2013-03-13 01:08:00,55.0,45.0,29.71,NW,312,0.0,4.0,68,0.00,,,0.00,weatherlink.com 1.10,2013-03-12 23:08:00,
2013-03-13 01:23:00,54.9,45.0,29.72,NW,325,0.0,4.0,70,0.00,,,0.00,weatherlink.com 1.10,2013-03-12 23:23:00,
2013-03-13 01:38:00,54.7,45.0,29.72,NW,325,0.0,0.0,69,0.00,,,0.00,weatherlink.com 1.10,2013-03-12 23:38:00,
2013-03-13 01:53:00,54.8,45.0,29.72,NW,308,3.0,5.0,70,0.00,,,0.00,weatherlink.com 1.10,2013-03-12 23:53:00,
2013-03-13 02:08:00,54.8,46.0,29.72,NW,322,2.0,6.0,71,0.00,,,0.00,weatherlink.com 1.10,2013-03-13 00:08:00,
2013-03-13 02:23:00,54.6,46.0,29.72,North,5,0.0,3.0,72,0.00,,,0.00,weatherlink.com 1.10,2013-03-13 00:23:00,
2013-03-13 02:38:00,54.4,46.0,29.73,NNW,335,1.0,3.0,72,0.00,,,0.00,weatherlink.com 1.10,2013-03-13 00:38:00,
2013-03-13 02:53:00,54.3,45.0,29.72,NW,325,3.0,5.0,70,0.00,,,0.00,weatherlink.com 1.10,2013-03-13 00:53:00,
2013-03-13 03:08:00,54.1,45.0,29.71,NW,325,0.0,0.0,71,0.00,,,0.00,weatherlink.com 1.10,2013-03-13 01:08:00,
2013-03-13 03:23:00,53.9,45.0,29.71,NW,325,0.0,0.0,71,0.00,,,0.00,weatherlink.com 1.10,2013-03-13 01:23:00,
2013-03-13 03:38:00,53.7,44.0,29.71,NW,325,0.0,0.0,71,0.00,,,0.00,weatherlink.com 1.10,2013-03-13 01:38:00,
2013-03-13 03:53:00,53.0,45.0,29.71,NW,325,0.0,2.0,73,0.00,,,0.00,weatherlink.com 1.10,2013-03-13 01:53:00,
2013-03-13 04:08:00,53.4,45.0,29.70,NW,325,0.0,0.0,72,0.00,,,0.00,weatherlink.com 1.10,2013-03-13 02:08:00,
2013-03-13 04:23:00,53.1,44.0,29.71,NW,325,0.0,0.0,72,0.00,,,0.00,weatherlink.com 1.10,2013-03-13 02:23:00,
2013-03-13 04:38:00,53.0,45.0,29.71,NW,325,0.0,0.0,73,0.00,,,0.00,weatherlink.com 1.10,2013-03-13 02:38:00,
2013-03-13 04:53:00,52.7,44.0,29.71,NW,325,0.0,1.0,73,0.00,,,0.00,weatherlink.com 1.10,2013-03-13 02:53:00,
2013-03-13 05:08:00,52.8,44.0,29.71,NW,325,0.0,1.0,73,0.00,,,0.00,weatherlink.com 1.10,2013-03-13 03:08:00,
2013-03-13 05:23:00,52.6,44.0,29.71,NW,325,0.0,0.0,73,0.00,,,0.00,weatherlink.com 1.10,2013-03-13 03:23:00,
2013-03-13 05:38:00,52.4,44.0,29.71,NW,325,0.0,0.0,74,0.00,,,0.00,weatherlink.com 1.10,2013-03-13 03:38:00,
2013-03-13 05:53:00,52.4,44.0,29.72,NW,325,0.0,0.0,74,0.00,,,0.00,weatherlink.com 1.10,2013-03-13 03:53:00,
2013-03-13 06:08:00,52.2,45.0,29.71,NW,325,0.0,0.0,75,0.00,,,0.00,weatherlink.com 1.10,2013-03-13 04:08:00,
2013-03-13 06:23:00,52.0,45.0,29.71,NW,325,0.0,0.0,76,0.00,,,0.00,weatherlink.com 1.10,2013-03-13 04:23:00,
2013-03-13 06:38:00,52.1,45.0,29.72,NW,325,0.0,0.0,76,0.00,,,0.00,weatherlink.com 1.10,2013-03-13 04:38:00,
2013-03-13 06:53:00,52.3,45.0,29.71,NW,325,0.0,0.0,76,0.00,,,0.00,weatherlink.com 1.10,2013-03-13 04:53:00,
2013-03-13 07:08:00,52.3,45.0,29.71,NW,325,0.0,0.0,76,0.00,,,0.00,weatherlink.com 1.10,2013-03-13 05:08:00,
2013-03-13 07:23:00,52.7,45.0,29.72,NW,325,0.0,0.0,75,0.00,,,0.00,weatherlink.com 1.10,2013-03-13 05:23:00,
2013-03-13 07:38:00,52.5,45.0,29.72,WNW,287,0.0,3.0,76,0.00,,,0.00,weatherlink.com 1.10,2013-03-13 05:38:00,
2013-03-13 07:53:00,54.2,46.0,29.72,SSW,211,1.0,5.0,74,0.00,,,0.00,weatherlink.com 1.10,2013-03-13 05:53:00,
2013-03-13 08:08:00,55.5,47.0,29.72,SW,218,2.0,6.0,72,0.00,,,0.00,weatherlink.com 1.10,2013-03-13 06:08:00,
2013-03-13 08:23:00,56.7,46.0,29.72,SW,232,0.0,9.0,67,0.00,,,0.00,weatherlink.com 1.10,2013-03-13 06:23:00,
2013-03-13 08:38:00,57.5,46.0,29.72,SSW,203,5.0,9.0,66,0.00,,,0.00,weatherlink.com 1.10,2013-03-13 06:38:00,
2013-03-13 08:54:00,58.1,46.0,29.73,WSW,244,1.0,7.0,65,0.00,,,0.00,weatherlink.com 1.10,2013-03-13 06:54:00,
2013-03-13 09:08:00,58.4,46.0,29.73,SSW,213,3.0,10.0,64,0.00,,,0.00,weatherlink.com 1.10,2013-03-13 07:08:00,
2013-03-13 09:23:00,59.2,46.0,29.73,South,181,4.0,8.0,61,0.00,,,0.00,weatherlink.com 1.10,2013-03-13 07:23:00,
2013-03-13 09:38:00,58.7,46.0,29.73,WSW,237,2.0,9.0,62,0.00,,,0.00,weatherlink.com 1.10,2013-03-13 07:38:00,
2013-03-13 09:53:00,59.8,47.0,29.74,SSW,197,2.0,10.0,64,0.00,,,0.00,weatherlink.com 1.10,2013-03-13 07:53:00,
2013-03-13 10:08:00,59.8,47.0,29.74,SE,141,6.0,14.0,63,0.00,,,0.00,weatherlink.com 1.10,2013-03-13 08:08:00,
2013-03-13 10:23:00,60.1,46.0,29.73,SW,231,8.0,14.0,61,0.00,,,0.00,weatherlink.com 1.10,2013-03-13 08:23:00,
2013-03-13 10:38:00,60.0,45.0,29.74,South,180,3.0,13.0,58,0.00,,,0.00,weatherlink.com 1.10,2013-03-13 08:38:00,
2013-03-13 10:53:00,60.8,47.0,29.73,SE,141,2.0,12.0,61,0.00,,,0.00,weatherlink.com 1.10,2013-03-13 08:53:00,
2013-03-13 11:08:00,61.2,48.0,29.74,SW,229,7.0,13.0,62,0.00,,,0.00,weatherlink.com 1.10,2013-03-13 09:08:00,
2013-03-13 11:23:00,62.0,49.0,29.73,WSW,243,1.0,14.0,62,0.00,,,0.00,weatherlink.com 1.10,2013-03-13 09:23:00,
2013-03-13 11:39:00,61.8,49.0,29.74,SW,217,9.0,11.0,64,0.00,,,0.00,weatherlink.com 1.10,2013-03-13 09:39:00,
2013-03-13 11:53:00,61.5,48.0,29.73,SSW,205,7.0,13.0,62,0.00,,,0.00,weatherlink.com 1.10,2013-03-13 09:53:00,
2013-03-13 12:08:00,61.6,48.0,29.73,SSW,192,7.0,13.0,61,0.00,,,0.00,weatherlink.com 1.10,2013-03-13 10:08:00,
2013-03-13 12:23:00,62.6,48.0,29.73,SW,214,8.0,15.0,60,0.00,,,0.00,weatherlink.com 1.10,2013-03-13 10:23:00,
2013-03-13 12:38:00,62.6,48.0,29.72,South,177,2.0,17.0,59,0.00,,,0.00,weatherlink.com 1.10,2013-03-13 10:38:00,
2013-03-13 12:53:00,62.9,48.0,29.72,SSE,165,8.0,14.0,59,0.00,,,0.00,weatherlink.com 1.10,2013-03-13 10:53:00,
2013-03-13 13:08:00,62.0,50.0,29.71,SSW,209,7.0,15.0,65,0.00,,,0.00,weatherlink.com 1.10,2013-03-13 11:08:00,
2013-03-13 13:23:00,61.6,52.0,29.70,SW,230,5.0,19.0,71,0.00,,,0.00,weatherlink.com 1.10,2013-03-13 11:23:00,
2013-03-13 13:38:00,62.3,52.0,29.70,SSW,211,4.0,17.0,69,0.00,,,0.00,weatherlink.com 1.10,2013-03-13 11:38:00,
2013-03-13 13:54:00,62.1,52.0,29.70,SSW,213,7.0,16.0,69,0.00,,,0.00,weatherlink.com 1.10,2013-03-13 11:54:00,
2013-03-13 14:09:00,62.9,52.0,29.70,SW,218,9.0,16.0,68,0.00,,,0.00,weatherlink.com 1.10,2013-03-13 12:09:00,
2013-03-13 14:24:00,62.8,50.0,29.69,SSE,152,8.0,17.0,64,0.00,,,0.00,weatherlink.com 1.10,2013-03-13 12:24:00,
2013-03-13 14:39:00,62.1,51.0,29.69,SW,232,18.0,22.0,68,0.00,,,0.00,weatherlink.com 1.10,2013-03-13 12:39:00,
2013-03-13 14:54:00,61.2,53.0,29.69,South,169,7.0,15.0,74,0.00,,,0.00,weatherlink.com 1.10,2013-03-13 12:54:00,
2013-03-13 15:09:00,60.6,53.0,29.69,SW,217,6.0,19.0,75,0.00,,,0.00,weatherlink.com 1.10,2013-03-13 13:09:00,
2013-03-13 15:24:00,60.6,53.0,29.69,WSW,244,7.0,13.0,76,0.00,,,0.00,weatherlink.com 1.10,2013-03-13 13:24:00,
2013-03-13 15:39:00,60.3,53.0,29.70,SW,227,8.0,14.0,76,0.00,,,0.00,weatherlink.com 1.10,2013-03-13 13:39:00,
2013-03-13 15:54:00,60.3,52.0,29.69,SSW,200,4.0,14.0,75,0.00,,,0.00,weatherlink.com 1.10,2013-03-13 13:54:00,
2013-03-13 16:09:00,60.3,52.0,29.69,SW,219,3.0,13.0,75,0.00,,,0.00,weatherlink.com 1.10,2013-03-13 14:09:00,
2013-03-13 16:24:00,60.6,52.0,29.69,WSW,252,5.0,12.0,73,0.00,,,0.00,weatherlink.com 1.10,2013-03-13 14:24:00,
2013-03-13 16:39:00,61.0,52.0,29.69,SSW,198,6.0,13.0,72,0.00,,,0.00,weatherlink.com 1.10,2013-03-13 14:39:00,
2013-03-13 16:54:00,61.2,52.0,29.69,SW,222,4.0,13.0,73,0.00,,,0.00,weatherlink.com 1.10,2013-03-13 14:54:00,
2013-03-13 17:09:00,61.1,52.0,29.69,SW,225,4.0,11.0,73,0.00,,,0.00,weatherlink.com 1.10,2013-03-13 15:09:00,
2013-03-13 17:24:00,60.8,52.0,29.69,South,169,4.0,11.0,73,0.00,,,0.00,weatherlink.com 1.10,2013-03-13 15:24:00,
2013-03-13 17:39:00,60.9,52.0,29.69,SSW,203,6.0,9.0,73,0.00,,,0.00,weatherlink.com 1.10,2013-03-13 15:39:00,
2013-03-13 17:54:00,61.0,52.0,29.69,SW,224,6.0,9.0,71,0.00,,,0.00,weatherlink.com 1.10,2013-03-13 15:54:00,
2013-03-13 18:09:00,61.0,51.0,29.70,SSW,208,6.0,7.0,69,0.00,,,0.00,weatherlink.com 1.10,2013-03-13 16:09:00,
2013-03-13 18:24:00,60.9,51.0,29.71,SSE,155,1.0,10.0,71,0.00,,,0.00,weatherlink.com 1.10,2013-03-13 16:24:00,
2013-03-13 18:39:00,60.2,51.0,29.70,SSE,150,0.0,6.0,72,0.00,,,0.00,weatherlink.com 1.10,2013-03-13 16:39:00,
2013-03-13 18:54:00,60.4,49.0,29.70,SW,216,2.0,9.0,66,0.00,,,0.00,weatherlink.com 1.10,2013-03-13 16:54:00,
2013-03-13 19:09:00,60.1,49.0,29.70,SW,220,2.0,7.0,68,0.00,,,0.00,weatherlink.com 1.10,2013-03-13 17:09:00,
2013-03-13 19:24:00,59.7,49.0,29.71,SSW,213,2.0,5.0,69,0.00,,,0.00,weatherlink.com 1.10,2013-03-13 17:24:00,
2013-03-13 19:39:00,59.4,48.0,29.71,South,186,0.0,3.0,67,0.00,,,0.00,weatherlink.com 1.10,2013-03-13 17:39:00,
2013-03-13 19:54:00,59.1,48.0,29.71,South,186,0.0,2.0,68,0.00,,,0.00,weatherlink.com 1.10,2013-03-13 17:54:00,
2013-03-13 20:09:00,59.4,48.0,29.72,SW,218,3.0,6.0,65,0.00,,,0.00,weatherlink.com 1.10,2013-03-13 18:09:00,
2013-03-13 20:24:00,59.5,47.0,29.72,South,184,2.0,5.0,64,0.00,,,0.00,weatherlink.com 1.10,2013-03-13 18:24:00,
2013-03-13 20:39:00,59.6,48.0,29.72,SW,221,2.0,9.0,65,0.00,,,0.00,weatherlink.com 1.10,2013-03-13 18:39:00,
2013-03-13 20:54:00,59.6,49.0,29.72,SW,218,2.0,11.0,69,0.00,,,0.00,weatherlink.com 1.10,2013-03-13 18:54:00,
2013-03-13 21:09:00,59.3,50.0,29.72,SSE,167,1.0,11.0,72,0.00,,,0.00,weatherlink.com 1.10,2013-03-13 19:09:00,
2013-03-13 21:24:00,59.0,51.0,29.72,ESE,121,2.0,8.0,75,0.00,,,0.00,weatherlink.com 1.10,2013-03-13 19:24:00,
2013-03-13 21:39:00,58.8,53.0,29.72,SSW,202,3.0,14.0,80,0.00,,,0.00,weatherlink.com 1.10,2013-03-13 19:39:00,
2013-03-13 21:54:00,58.3,54.0,29.71,SW,224,6.0,19.0,84,0.00,,,0.00,weatherlink.com 1.10,2013-03-13 19:54:00,
2013-03-13 22:09:00,58.1,54.0,29.71,WSW,238,6.0,14.0,86,0.00,,,0.00,weatherlink.com 1.10,2013-03-13 20:09:00,
2013-03-13 22:24:00,57.9,54.0,29.71,SSW,203,4.0,16.0,87,0.00,,,0.00,weatherlink.com 1.10,2013-03-13 20:24:00,
2013-03-13 22:39:00,58.1,55.0,29.71,SSW,194,5.0,12.0,88,0.00,,,0.00,weatherlink.com 1.10,2013-03-13 20:39:00,
2013-03-13 22:54:00,58.0,55.0,29.70,SSW,206,6.0,16.0,89,0.00,,,0.00,weatherlink.com 1.10,2013-03-13 20:54:00,
2013-03-13 23:09:00,57.8,55.0,29.70,SSE,161,5.0,16.0,90,0.00,,,0.00,weatherlink.com 1.10,2013-03-13 21:09:00,
2013-03-13 23:24:00,57.8,55.0,29.69,South,184,4.0,15.0,90,0.00,,,0.00,weatherlink.com 1.10,2013-03-13 21:24:00,
2013-03-13 23:39:00,57.8,55.0,29.69,SW,219,6.0,16.0,90,0.00,,,0.00,weatherlink.com 1.10,2013-03-13 21:39:00,
2013-03-13 23:54:00,57.7,55.0,29.68,SSW,194,4.0,16.0,90,0.00,,,0.00,weatherlink.com 1.10,2013-03-13 21:54:00,